Weather History for KBPK - December, 2012

Change the Weather History Date:

Sunday, December 23, 2012

  Actual Average (KHRO) Record (KHRO)
Temperature  
Mean Temperature 54 °F 36 °F  
Max Temperature 63 °F 46 °F 72 °F (1964)
Min Temperature 44 °F 27 °F -11 °F (1989)
Degree Days  
Heating Degree Days 12 29  
Month to date heating degree days 603  
Since 1 July heating degree days 1367  
Cooling Degree Days 0 0  
Month to date cooling degree days 0  
Year to date cooling degree days 1416  
Growing Degree Days 4 (Base 50)    
Moisture  
Dew Point 38 °F    
Average Humidity 59    
Maximum Humidity 86    
Minimum Humidity 37    
Precipitation  
Precipitation 0.00 in 0.10 in 1.38 in (1979)
Month to date precipitation 2.45  
Year to date precipitation 43.39  
Snow  
Snow 0.00 in 0.10 in 13.00 in (1966)
Month to date snowfall 0.5  
Since 1 July snowfall 1.0  
Snow Depth -    
Sea Level Pressure  
Sea Level Pressure 29.88 in    
Wind  
Wind Speed 5 mph (South)    
Max Wind Speed 12 mph    
Max Gust Speed -    
Visibility 10 miles    
Events      
T = Trace of Precipitation, MM = Missing Value Source: NWS Daily Summary

Daily Weather History Graph

Daily Weather History Graph

Search for Another Location

Airport or City:

Trip Planner

Search our weather history database for the weather conditions in past years. The results will help you decide how hot, cold, wet, or windy it might be!

Date:

Astronomy

Dec. 23, 2012 Rise Set
Actual Time 7:18 AM CST 4:59 PM CST
Civil Twilight 6:50 AM CST 5:28 PM CST
Nautical Twilight 6:17 AM CST 6:00 PM CST
Astronomical Twilight 5:46 AM CST 6:32 PM CST
Moon 1:47 PM CST (12/23) 3:05 AM CST (12/23)
Length of Visible Light 10h 38m
Length of Day
9h 40m
Waxing Gibbous, 82% of the Moon is Illuminated
Dec 23
Waxing Gibbous
Dec 28
Full
Jan 4
Last Quarter
Jan 11
New
Jan 18
First Quarter

Hourly Weather History & Observations

Time (CST) Temp. Windchill Dew Point Humidity Pressure Visibility Wind Dir Wind Speed Gust Speed Precip Events Conditions
12:53 AM 46.0 °F 43.9 °F 21.0 °F 37% 29.98 in 10.0 mi South 4.6 mph - N/A   Clear
1:53 AM 45.0 °F 42.6 °F 21.9 °F 40% 29.97 in 10.0 mi South 4.6 mph - N/A   Clear
2:53 AM 46.0 °F 43.1 °F 21.9 °F 39% 29.96 in 10.0 mi South 5.8 mph - N/A   Clear
3:53 AM 46.0 °F 43.9 °F 24.1 °F 42% 29.95 in 10.0 mi South 4.6 mph - N/A   Clear
4:53 AM 46.0 °F 43.9 °F 25.0 °F 44% 29.94 in 10.0 mi SSE 4.6 mph - N/A   Clear
5:53 AM 45.0 °F 41.8 °F 27.0 °F 49% 29.95 in 10.0 mi South 5.8 mph - N/A   Clear
6:53 AM 44.1 °F 40.8 °F 30.0 °F 58% 29.95 in 10.0 mi SSE 5.8 mph - N/A   Clear
7:53 AM 45.0 °F 42.6 °F 32.0 °F 60% 29.95 in 10.0 mi SSE 4.6 mph - N/A   Clear
8:53 AM 48.0 °F - 34.0 °F 58% 29.95 in 10.0 mi South 4.6 mph - N/A   Clear
9:53 AM 53.1 °F - 37.9 °F 57% 29.94 in 10.0 mi SSW 5.8 mph - N/A   Clear
10:53 AM 57.9 °F - 42.1 °F 56% 29.93 in 10.0 mi SW 8.1 mph - N/A   Clear
11:53 AM 62.1 °F - 44.1 °F 52% 29.88 in 10.0 mi SSW 11.5 mph - N/A   Clear
12:53 PM 63.0 °F - 44.1 °F 50% 29.83 in 10.0 mi SW 5.8 mph - N/A   Partly Cloudy
1:53 PM 63.0 °F - 44.1 °F 50% 29.81 in 10.0 mi WSW 4.6 mph - N/A   Partly Cloudy
2:53 PM 62.1 °F - 43.0 °F 50% 29.81 in 10.0 mi SSW 9.2 mph - N/A   Clear
3:53 PM 61.0 °F - 44.1 °F 54% 29.80 in 10.0 mi South 5.8 mph - N/A   Clear
4:53 PM 55.9 °F - 44.1 °F 64% 29.81 in 9.0 mi South 3.5 mph - N/A   Clear
5:53 PM 54.0 °F - 44.1 °F 69% 29.82 in 10.0 mi Calm Calm - N/A   Clear
6:53 PM 53.1 °F - 44.1 °F 71% 29.83 in 10.0 mi Calm Calm - N/A   Mostly Cloudy
7:53 PM 52.0 °F - 45.0 °F 77% 29.82 in 9.0 mi SE 4.6 mph - N/A   Mostly Cloudy
8:53 PM 51.1 °F - 46.0 °F 83% 29.81 in 9.0 mi SE 4.6 mph - N/A   Mostly Cloudy
9:53 PM 51.1 °F - 46.9 °F 86% 29.81 in 9.0 mi South 4.6 mph - N/A   Overcast
10:53 PM 52.0 °F - 46.9 °F 83% 29.81 in 8.0 mi Calm Calm - N/A   Overcast
11:53 PM 51.1 °F - 46.9 °F 86% 29.79 in 8.0 mi Calm Calm - N/A   Overcast